Regional Weather Roundup
Issued by NWS Wakefield, VA

Home | Current Version | Previous Version | Text Only | Print | Product List | Glossary On
Versions: 1 2 3 4 5 6 7 8 9 10 11 12 13 14 15 16 17 18 19 20 21 22 23 24 25 26 27
000
ASUS41 KAKQ 190510
RWRAKQ

REGIONAL WEATHER ROUNDUP
NATIONAL WEATHER SERVICE WAKEFIELD VA
100 AM EDT SAT APR 19 2014

Note: "fair" indicates few or no clouds below 12,000 feet with no
significant weather and/or obstructions to visibility. * = Denotes
station may not report precipitation (e.g., rain,snow,etc.),
thunder or fog.

VAZ042-051-052>054-056-190600-
NORTHERN VIRGINIA

CITY           SKY/WX    TMP DP  RH WIND       PRES   REMARKS
WASH NATIONAL  CLOUDY    49  37  63 SW5       30.30R
DULLES         CLOUDY    44  35  70 S3        30.29R
FORT BELVOIR   CLOUDY    43  38  83 CALM      30.30R
QUANTICO       CLOUDY    49  38  65 SW5       30.30S
FREDERICKSBRG* CLOUDY    46  39  76 CALM      30.28S
STAFFORD*      CLOUDY    45  40  83 CALM      30.33S
WARRENTON      CLOUDY    44  42  95 CALM      30.28S
CULPEPER*      CLOUDY    45  37  76 CALM      30.29S
MANASSAS*      CLOUDY    43  39  87 CALM      30.29S
LEESBURG*      CLOUDY    46  39  76 S6        30.29R
WINCHESTER     CLOUDY    43  36  75 CALM      30.25R
$$

VAZ048-049-060>072-079>083-190600-
CENTRAL AND SOUTH CENTRAL VIRGINIA...AND NORTH CENTRAL NORTH CAROLINA

CITY           SKY/WX    TMP DP  RH WIND       PRES   REMARKS
RICHMOND       CLOUDY    47  40  76 SE3       30.29F
CHESTERFIELD*  NOT AVBL
HANOVER        CLOUDY    45  40  82 CALM      30.30F
TAPPAHANNOCK*  CLOUDY    46  38  74 SE3       30.30S
CHARLOTTSVILLE CLOUDY    47  38  71 CALM      30.25F
ORANGE*        CLOUDY    45  37  76 CALM      30.28F
LOUISA*        CLOUDY    46  37  71 SE3       30.26F
FARMVILLE*     CLOUDY    46  39  76 CALM      30.25F
SOUTH HILL*    RAIN      48  46  93 CALM      30.31F
ROANOKE RAPIDS LGT RAIN  48  46  93 NE5       30.27S
RALEIGH        LGT RAIN  49  45  86 NE7       30.22F
$$

VAZ088>098-190600-
SOUTHEAST VIRGINIA

CITY           SKY/WX    TMP DP  RH WIND       PRES   REMARKS
NORFOLK        CLOUDY    46  41  82 NE8       30.28F
VIRGINIA BEACH CLOUDY    46  42  86 NE7       30.27F
NORFOLK NAVAL  CLOUDY    47  41  80 NE7       30.29F
WEST POINT*    CLOUDY    47  41  80 CALM      30.31F
NEWPORT NEWS   CLOUDY    49  42  77 NE3       30.28F
LANGLEY AFB    CLOUDY    46  45  93 E6        30.28F
FORT EUSTIS    CLOUDY    46  43  87 VRB2      30.27F
WILLIAMSBURG*    N/A     48  45  87 CALM      30.30F
FRANKLIN*      CLOUDY    46  46 100 CALM      30.28F
WAKEFIELD      LGT RAIN  47  42  83 CALM      30.28F
$$

VAZ020-022-025-037-045-190600-
WESTERN AND SOUTHWEST VIRGINIA

CITY           SKY/WX    TMP DP  RH WIND       PRES   REMARKS
STAUNTON*      CLOUDY    44  38  78 CALM      30.25F
HOT SPRINGS VA CLOUDY    46  23  39 NW6       30.28F
LYNCHBURG      CLOUDY    49  41  74 CALM      30.26F
DANVILLE       LGT RAIN  50  42  74 NE6       30.24F
MARTINSVILLE   CLOUDY    49  42  79 CALM      30.25S
ROANOKE        CLOUDY    47  39  74 CALM      30.26F
BLACKSBURG     CLOUDY    46  43  87 SE3       30.25F
DUBLIN*        CLOUDY    44  40  85 CALM      30.24F
MARION*        CLOUDY    46  38  73 CALM      30.24F
HILLSVILLE*    CLOUDY    46  37  71 CALM      30.25S
RICHLANDS*     CLOUDY    55  34  44 NE6       30.21S
WISE*          CLOUDY    52  32  46 N3        30.21F
ABINGDON*      CLOUDY    55  33  42 E7        30.19F
$$

MDZ021>025-VAZ099-100-190600-
SOUTHERN MARYLAND AND THE DELMARVA PENINSULA

CITY           SKY/WX    TMP DP  RH WIND       PRES   REMARKS
PATUXENT RIVER CLOUDY    46  40  79 S3        30.29F
BAY BRIDGE APT CLOUDY    46  41  81 SE3       30.29S
LEONARDTOWN    CLOUDY    45  37  76 CALM      30.30S
DOVER          CLOUDY    41  41 100 SE2       30.25S
GEORGETOWN     CLOUDY    43  39  86 CALM      30.30R
EASTON         CLOUDY    46  42  85 CALM      30.33S
CAMBRIDGE      CLOUDY    45  39  81 CALM      30.29F
SALISBURY      CLOUDY    44  39  82 CALM      30.30S
OCEAN CITY     CLOUDY    44  39  82 MISG      30.31R
WALLOPS ISLAND CLOUDY    45  41  86 E6        30.30F
ACCOMACK*      CLOUDY    43  39  87 CALM      30.30S
$$

NCZ012>017-030>032-190600-
EASTERN NORTH CAROLINA

CITY           SKY/WX    TMP DP  RH WIND       PRES   REMARKS
ELIZABETH CITY CLOUDY    47  43  86 N8        30.25F
AHOSKIE*       CLOUDY    47  41  79 N5        30.28S
EDENTON*       CLOUDY    47  43  87 N5        30.25F
CURRITUCK*     CLOUDY    47  44  88 N9        30.25F
KILL DEVIL HLS CLOUDY    47  45  94 N6        30.22F
MANTEO         CLOUDY    47  46  95 NE7       30.25F
CAPE HATTERAS  CLOUDY    51  51 100 NE12G21   30.20F
GOLDSBORO      LGT RAIN  50  49  98 NE12      30.19F
WASHINGTON     CLOUDY    48  43  85 NE9       30.23F
GREENVILLE     LGT RAIN  48  45  87 NE3       30.26S
NEW BERN       LGT RAIN  51  48  89 N8        30.21F
WILMINGTON     LGT RAIN  53  50  89 NE13      30.12F
$$

VAZ048-190600-
ELSEWHERE

CITY           SKY/WX    TMP DP  RH WIND       PRES   REMARKS
HARRISBURG PA  CLOUDY    47  35  63 SE5       30.25F
BALTIMORE      CLOUDY    42  36  79 CALM      30.28R
ANNAPOLIS      CLOUDY    47  39  74 S3        30.29R
ANDREWS AFB    CLOUDY    44  37  75 S5        30.29R
WILMINGTON DE  CLOUDY    44  39  82 CALM      30.28F
PHILADELPHIA   CLOUDY    45  37  73 S10       30.28F
WILDWOOD NJ*   CLOUDY    41  36  81 SW5       30.30R
ATLANTIC CITY  CLOUDY    38  34  85 CALM      30.27F
HENDERSON NC   RAIN      46  45  93 E5        30.25F
GREENSBORO     LGT RAIN  48  43  82 NE7       30.20F
ROCKY MOUNT    CLOUDY    50  45  83 NE8       30.24F
FAYETTEVILLE   LGT RAIN  51  49  92 NE16G23   30.15F FOG
CHARLOTTE      LGT RAIN  48  47  96 N8        30.18F
$$

VAZ100-190600-
MARINE

STATION/POSITION TIME  TEMP    WIND        PRES    WAVE   SWELL
                       AIR SEA DIR/SP/G            HT/PER HT/PER
                 (UTC) (F)     (DEG/KT/KT) (MB)    (FT/S) (FT/S)
44066 TX TWR #4  0500   41 44  270/  2/  4 1025.2R   8/10   8/10
CAPE MAY NJ      0500   42 53   CALM  /  1 1025.3F
LEWES DE         0500   43 49  170/  2/  2 1025.1F
15NM E FENWICK I 0500   44 45              1026.0R   5/11
OCEAN-CITY-INLET 0500   44 47  170/  4/  4 1025.9S
WACHAPREAGUE VA  0500   45 52   50/  3/  4 1025.7S
THOMAS POINT MD  0500   49 52  170/  4/  5 1026.2R
GOOSES REEF MD   0500   49     220/  4/  6 1026.8S
COVE POINT MD    0500   47     240/  3/  4 1025.6S
SOLOMONS ISLAND  0500      52                N/A
BISHOPS HEAD MD  0500   46 54  150/  7/  8 1025.8R
PINEY POINT MD   0500          200/ 10/ 11   N/A
POTOMAC MD       0500   47     190/  8/ 10 1025.7R
CAMBRIDGE MD     0500   46 55  160/  3/  5 1025.4F
LEWISETTA VA     0500   46 54  200/  7/  8 1026.0S
RAPPAHANNOCK LGT 0500           CALM  /  1 1026.5F
STINGRAY PT      0500   46     150/  2/  4 1026.1F
YORK RVR RNG VA  0500   46     130/  4/  5 1025.5R
YORKTOWN VA      0500   47 54   90/  5/  6 1025.7F
JAMESTOWN VA     0500   47     140/  6/  8   N/A
DOMINION TERM VA 0500   47     100/  2/  5 1026.1F
KIPTOPEKE VA     0500      52   20/  3/  6   N/A
CHES BAY BRIDGE  0500   45 51   40/  6/  8 1025.9S
CAPE HENRY VA    0500   45      20/  6/  8   N/A
CHESAPEAKE LGHT  0400   45      30/  8/  9 1026.7R
WILLOUBY STN VA  0500   46      80/  6/  7 1025.0F
S CRANEY ISL VA  0500           40/  6/  8 1025.4F
CAPE HENRY BUOY  0500      47                N/A     5/10   2/12
1ST LANDING BUOY 0500      45                N/A     4/ 9   5/ 9
64NM E OF VA BCH 0500   52 49   40/ 10/ 12 1023.9F   7/ 9   7/ 9
DUCK PIER NC     0500   47 49   10/ 10/ 12 1023.5F
44100 DUCK FRF   0500      48                N/A     6/ 9   3/11
44056 DUCK FRF   0500      48                N/A     5/ 9   2/12
OREGON INLET NC  0500   48 53  350/  9/ 13 1024.2F
HATTERAS NC      0500   53 56   20/ 12/ 17 1023.0F
CAPE LOOKOUT NC  0400   53      20/ 15/ 19 1021.9F
FRYING PAN SHLS  0500   61 65   50/ 27/ 33 1015.9F   9/ 7
$$



USA.gov is the U.S. government's official web portal to all federal, state and local government web resources and services.